Lima, Perú

3:34 PM PET en Noviembre 25, 2014 (GMT -0500)
Jorge Chavez International | Change Station
CLOSE
Current Station
Aeropuerto
Location: Lima,
Altura: 43 ft
Estaciones meteorológicas cercanas

Alt 43 ft 12.01 °S, 77.12 °W | Updated 34 minutes ago

Overcast
Nublado
72 ° F
Sensación térmica 72 ° F
N
8
Viento Variable Viento desde Sur

Hoy
Alta -- | Baja -- ° F
--% Posibilidad de precipitaciones
Ayer
Alta -- | Baja -- ° F
Precip. -- pul
5:33 AM 6:17 PM
Creciente, 13% visible
Presión 29.92 pul
Visibilidad 6.2 Millas
Nubes Nublado 3300 ft
Punto de rocío 61 ° F
Humedad 69%
Precipitaciones 0.00 pul
Espesor de la nieve No disponible.
UV 3 de una escala de 12
Polen No disponible.
Calidad del aire No disponible.
Flu Activity No disponible.
METAR SPIM 252000Z 19007KT 160V240 9999 OVC033 22/16 Q1013 NOSIG RMK PP000

More Conditions Fewer Conditions

Presión 29.92 pul
Visibilidad 6.2 Millas
Nubes Nublado 3300 ft
Punto de rocío 61 ° F
Humedad 69%
Precipitaciones 0.00 pul
Espesor de la nieve No disponible.
UV 3 de una escala de 12
Polen No disponible.
Calidad del aire No disponible.
Flu Activity No disponible.
METAR SPIM 252000Z 19007KT 160V240 9999 OVC033 22/16 Q1013 NOSIG RMK PP000

More Conditions Fewer Conditions

10-Day Weather Forecast

Almanac

Astronomía

Nov. 25, 2014 Salida Puesta
Hora real
Crepúsculo civil
Crepúsculo náutico
Crepúsculo astronómico
Luna
Horas de luz
Horas de luz
Tomorrow will be .
, % of the Moon is Illuminated

Extremos de hoy

Máximos del país Bajas del país

Community

WunderPhotos

Upload Photos

1,773,585 ¡fotos cargadas!

WunderBlogs® & News

Nearby

Calidad del aire

  Calidad del aire Índice AQ Contaminante
Not available.

Grosos de nieve

Estación Profundido Altura

Actividad de terremotos

Ciudad Distance Mag. Tiempo y dato
Magnitud mínima muestra es 2,5.

Temperaturas de aguas costeras

Lugar Temperatura

Estaciones meteorológicas cercanas